Regional Weather Roundup
Issued by NWS

Home | Current Version | Previous Version | Text Only | Print | Product List | Glossary Off
Versions: 1 2 3 4 5 6 7 8 9 10 11 12 13 14 15 16 17 18 19 20 21 22 23 24 25 26 27 28 29 30 31 32 33 34 35 36 37 38 39 40 41 42 43 44 45 46 47 48 49 50

000
ASUS43 KMKX 311121
RWRWI

WISCONSIN REGIONAL WEATHER ROUNDUP
NATIONAL WEATHER SERVICE MILWAUKEE/SULLIVAN WI
600 AM CDT FRI JUL 31 2015

NOTE: "FAIR" INDICATES FEW OR NO CLOUDS BELOW 12,000 FEET WITH NO
SIGNIFICANT WEATHER AND/OR OBSTRUCTIONS TO VISIBILITY.

WIZ001-002-006>008-014>016-023>028-311200-
NORTHWEST WISCONSIN

CITY           SKY/WX    TMP DP  RH WIND       PRES   REMARKS
SUPERIOR ARPT  CLEAR     61  54  77 W8        29.94S
ASHLAND        CLEAR     60  56  86 W6        29.91R
HAYWARD        PTCLDY    63  53  70 VRB5      29.96S
SIREN          CLEAR     61  53  74 W7        30.00R
CUMBERLAND     CLEAR     59  52  77 W6        30.00R
RICE LAKE      CLEAR     59  54  82 W6        30.01R
CHETEK         CLEAR     63  56  77 W8        29.99R
LADYSMITH      CLEAR     63  56  80 W7        29.98S
EAU CLAIRE     CLEAR     62  56  80 W8        29.99R
MENOMONIE      CLEAR     65  56  73 W9        30.01R
NEW RICHMOND   CLEAR     60  53  77 W7        30.02S
OSCEOLA        CLEAR     61  55  78 W7        30.04S
$$

WIZ003>005-009-010-017-018-311200-
NORTH CENTRAL WISCONSIN

CITY           SKY/WX    TMP DP  RH WIND       PRES   REMARKS
MANITOWISH WTR MOCLDY    60  56  89 W5        29.92S
ARBOR VITAE    CLOUDY    62  56  80 W3        29.93R
WOODRUFF       CLOUDY    62  56  80 W3        29.93R
RHINELANDER    CLOUDY    61  55  81 W10       29.94S
EAGLE RIVER    CLOUDY    58  57  97 W5        29.92R
LAND O LAKES   MOCLDY    59  55  88 W5        29.92R
PHILLIPS       PTCLDY    59  56  89 CALM      29.95R
TOMAHAWK       CLEAR     58  55  87 W6        29.94S
MEDFORD        CLEAR     59  55  88 W7        29.97R
MERRILL        NOT AVBL
$$

WIZ029-030-035-036-043>047-311200-
CENTRAL WISCONSIN

CITY           SKY/WX    TMP DP  RH WIND       PRES   REMARKS
WAUSAU         CLEAR     64  56  75 NW12      29.93S
MOSINEE        CLEAR     61  57  88 W8        29.97S
MARSHFIELD     CLEAR     62  55  77 W6        29.97S
STEVENS POINT  CLEAR     62  56  80 W7        29.97S
WAUPACA        CLEAR     64  59  82 W3        29.96S
WAUTOMA        CLEAR     58  56  93 CALM      29.98S
WISC RAPIDS    CLEAR     62  57  83 W7        29.98F
CAMP DOUGLAS   CLEAR     59  59 100 W7        29.99S
$$

WIZ011>013-019>022-031-037>040-048>050-311200-
NORTHEAST WISCONSIN

CITY           SKY/WX    TMP DP  RH WIND       PRES   REMARKS
ANTIGO         CLEAR     54  53  95 CALM      29.94F
SHAWANO        CLEAR     64  57  78 W7        29.93S
OCONTO         CLEAR     62  59  89 W6        29.89F
STURGEON BAY   MOCLDY    64  57  77 SW8       29.92S
GREEN BAY      CLEAR     64  58  80 W8        29.92F
MANITOWOC      CLEAR     66  60  81 MISG      29.93F
APPLETON       PTCLDY    63  55  77 W8        29.95S
CLINTONVILLE   CLEAR     63  55  77 W6        29.93S
OSHKOSH        CLEAR     66  57  72 W6        29.95S
$$

WIZ032>034-041-042-053>061-311200-
SOUTHWEST WISCONSIN

CITY           SKY/WX    TMP DP  RH WIND       PRES   REMARKS
LA CROSSE      CLEAR     63  60  90 SE6       30.01S
SPARTA         CLEAR     55  52  92 CALM      30.01S
VIROQUA        CLEAR     60  60 100 SW7       30.04S
BOSCOBEL       CLEAR     62  59  90 SW3       30.03S
PRAIRIE DU CHI PTCLDY    65  61  85 CALM      30.04R
PLATTEVILLE    PTCLDY    64  63  97 CALM      30.05R
$$

WIZ056-057-062-063-064-067-068-311200-
SOUTH CENTRAL WISCONSIN

CITY           SKY/WX    TMP DP  RH WIND       PRES   REMARKS
REEDSBURG      CLEAR     59  57  93 CALM      30.00S
BARABOO/DELLS  CLEAR     61  55  81 CALM      30.00S
LONE ROCK      CLEAR     57  55  93 CALM      30.03R
MINERAL POINT  PTCLDY    64  63  94 W5        30.04S
MADISON        PTCLDY    68  58  70 NW5       30.00R
MIDDLETON      CLEAR     64  59  82 W5        30.02R
WATERTOWN      PTCLDY    59  59 100 CALM      29.99S
MONROE         CLOUDY    66  61  82 SW10      30.03R
JANESVILLE     MOCLDY    63  61  94 SW5       30.01R
$$

WIZ051-052-058>065-066-070>072-311200-
SOUTHEAST WISCONSIN

CITY           SKY/WX    TMP DP  RH WIND       PRES   REMARKS
MILWAUKEE      PTCLDY    68  56  65 W5        29.98S
WAUKESHA       PTCLDY    64  55  72 SW5       30.00S
MILWAUKEE/TIMM CLEAR     63  54  72 W5        29.99S
RACINE         CLEAR     66  56  70 W7        30.00S
BURLINGTON     PTCLDY    60  56  87 S3        30.00S
KENOSHA        CLEAR     62  57  83 W6        29.99F
FOND DU LAC    PTCLDY    63  57  81 SW6       29.97S
SHEBOYGAN      CLEAR     63  58  83 W9        29.95S
WEST BEND      MOCLDY    64  55  72 W5        29.98R
JUNEAU         CLEAR     59  56  91 SW3       30.00S
$$

LSZ147-162-311200-
LAKE SUPERIOR

STATION/POSITION TIME  TEMP    WIND        PRES    WAVE
                       AIR SEA DIR/SP/G            HT/PER
                 (UTC) (F)     (DEG/KT/KT) (MB)    (FT/S)
W MID LAKE BUOY  1050   57 52  250/ 14/ 14 1010.6R   1/ 3
DEVILS ISLAND    1100   58     260/ 15/ 18 1011.9R
PORT WING        1000   65     240/ 10/ 13 1012.9S
SAXON HARBOR     1040   65                 1011.9R
$$

LMZ867-665-643>646-311200-
LAKE MICHIGAN

STATION/POSITION TIME  TEMP    WIND        PRES    WAVE
                       AIR SEA DIR/SP/G            HT/PER
                 (UTC) (F)     (DEG/KT/KT) (MB)    (FT/S)
CHAMBERS ISLAND  1000   65     220/  6/ 10 1011.5S
S GREEN BAY BUOY 1100   64 66  250/ 12/ 12 1013.8S
N MID LAKE BUOY  1050   68 68  250/ 12/ 14 1010.4S   2/ 3
NORTHPORT PIER   1100   68     260/  5/ 11 1011.2S
SISTER BAY       1014   69     300/ 17/ 19   N/A
ALGOMA LAKESHORE 1012          250/  4/  8   N/A
KEWAUNEE LAKESHO 1000   67     290/  5/  7 1012.4S
SHEBOYGAN LAKESH 1100   68     250/ 10/ 12 1014.0F
PORT WASHINGTON  1000   69     270/  4/  9 1015.2F
ATWATER BUOY     1100   68 61  250/ 10/ 10 1016.1F
MILWAUKEE LAKESH 1100   71     260/  9/ 13   N/A
KENOSHA   LAKESH 1100   70     250/  9/ 12 1015.2S
$$

TC  - TEMPERATURE IN CELSIUS
VSB - VISIBILITY IN STATUTE MILES
WCI - WIND CHILL INDEX
HX  - HEAT INDEX




USA.gov is the U.S. government's official web portal to all federal, state and local government web resources and services.